Préparation du vol

Réserver un ULM chez EFU                     Découvrir nos appareils                     Coordonnées de l'école

Available data for LFPN from the past hour

METAR
LFPN 211730Z AUTO 14007KT CAVOK 26/12 Q1009 NOSIG
LFPN 211700Z AUTO 14009KT CAVOK 27/12 Q1009 NOSIG
TAF
TAF LFPN 211400Z 2115/2124 14008KT CAVOK

Pour avoir des informations détaillée sur la météo à venir vous pouvez consulter Aeroweb

prevision des pluies

Nota : Heuro locale = heure CET

[table “3” not found /]

OLIVIA

Outil en Ligne Intégré de Visualisation d'Informations Aéronautiques

OLIVIA